Regional Weather Roundup
Issued by NWS

Current Version | Previous Version | Text Only | Print | Product List | Glossary On
Versions: 1 2 3 4 5 6 7 8 9 10 11 12 13 14 15 16 17 18 19 20 21 22 23 24 25 26 27 28 29 30 31 32 33 34 35 36 37 38 39 40 41 42 43 44 45 46 47 48 49 50
000
ASUS46 KPQR 191610
RWROR

OREGON REGIONAL WEATHER ROUNDUP
NATIONAL WEATHER SERVICE PORTLAND OR
900 AM PDT MON APR 19 2021

NOTE: "FAIR" INDICATES FEW OR NO CLOUDS BELOW 12,000 FEET WITH
NO SIGNIFICANT WEATHER AND/OR OBSTRUCTIONS TO VISIBILITY.

ORZ001>013-191700-
NORTHWEST OREGON


CITY           SKY/WX    TMP DP  RH WIND       PRES   REMARKS
ASTORIA        CLOUDY    48  44  86 SE6       30.25S
TILLAMOOK      CLOUDY    45  41  87 CALM      30.28S
NEWPORT        CLOUDY    45  43  93 CALM      30.29R
FLORENCE       CLOUDY    46  42  85 CALM      30.26R
PORTLAND       MOSUNNY   53  42  66 VRB3      30.25S
VANCOUVER WA   SUNNY     52  39  61 CALM      30.25R
SCAPPOOSE      SUNNY     55  40  56 VRB5      30.24F
HILLSBORO      SUNNY     52  36  54 CALM      30.24S
AURORA         SUNNY     56  41  57 N6        30.24S
MCMINNVILLE    SUNNY     55  37  50 CALM      30.23S
SALEM          SUNNY     58  36  43 N8        30.22R
CORVALLIS      MOSUNNY   52  42  69 CALM      30.23F
EUGENE         MOSUNNY   55  44  66 CALM      30.22F
CRESWELL       SUNNY     54  43  66 CALM      30.21F
$$

ORZ021-028-191700-
SOUTHWEST OREGON


CITY           SKY/WX    TMP DP  RH WIND       PRES   REMARKS
NORTH BEND     CLOUDY    45  43  93 N3        30.27S
BROOKINGS      CLOUDY    44  44 100 CALM      30.24S
ROSEBURG       MOSUNNY   53  36  52 CALM      30.22F
SEXTON SUMMIT  PTSUNNY   50  25  37 N7        30.21S
GRANTS PASS    FAIR      52  36  54 CALM      30.24S
MEDFORD        MOSUNNY   54  37  52 CALM      30.20S
$$

ORZ014>016-041-191700-
COLUMBIA GORGE


CITY           SKY/WX    TMP DP  RH WIND       PRES   REMARKS
TROUTDALE      SUNNY     55  38  52 VRB3      30.24F
HOOD RIVER     MOSUNNY   54  32  43 MISG      30.34R
THE DALLES     MOSUNNY   57  30  35 E15       30.35R
$$

ORZ029>031-041-044-049-050-061>064-502-503-505>511-191700-
EASTERN OREGON


CITY           SKY/WX    TMP DP  RH WIND       PRES   REMARKS
MADRAS         SUNNY     52  32  46 N13       30.30R
REDMOND        SUNNY     55  29  36 NW13      30.25R
BEND           SUNNY     52  25  35 NW9       30.26S
PRINEVILLE     SUNNY     54  27  35 VRB5      30.25R
KLAMATH FALLS  SUNNY     52  36  54 CALM      30.20F
LAKEVIEW       SUNNY     49  28  44 CALM      30.22S
HERMISTON      SUNNY     51  26  37 NE10      30.36R
PENDLETON      SUNNY     48  29  47 N9        30.32R
JOHN DAY       SUNNY     50  28  43 N7        30.22R
MEACHAM        PTSUNNY   41  30  65 CALM      30.24R
LA GRANDE      SUNNY     48  30  49 W25       30.21R
BAKER CITY       N/A     50  25  37 NW22G41   30.16R
BURNS          SUNNY     54  29  38 N8        30.18F
ROME             N/A     60  25  26 NW14G24   30.12F
ONTARIO        MOSUNNY   64  28  25 NW31G40   30.07S
$$


OTHER REGIONAL REPORTS

CITY           SKY/WX    TMP DP  RH WIND       PRES   REMARKS
SEATTLE        MOSUNNY   54  44  69 S5        30.25R
SPOKANE        SUNNY     43  12  28 NE20      30.34R
VANCOUVER BC   MOSUNNY   63  34  34 NE9       30.25S
PRINCE GEORGE  SUNNY     36  19  51 CALM      30.40S
DAWSON CREEK   SUNNY     36  27  69 CALM      30.47F
WHITEHORSE     SUNNY     36  21  55 SE5       30.28S
BOISE          MOSUNNY   59  32  36 NW20      30.02F
REDDING        SUNNY     67  43  41 CALM      30.04F
SAN FRANCISCO  PTSUNNY   54  46  74 W12       30.14S

$$




USA.gov is the U.S. government's official web portal to all federal, state and local government web resources and services.